Track IRIDIUM 117 now! 10-day predictions IRIDIUM 117 is classified as:
1 42808U 17039F 22183.51958502 .00000123 00000-0 36979-4 0 9997 2 42808 86.3976 237.7064 0002464 87.8887 272.2591 14.34215449262762